[[{"header":{"parameterUnit":"m.s-1","parameterCategory":1,"la1":30.2991,"la2":30.254,"lo1":-89.0895,"lo2":-89.0444,"dy":0.0017,"dx":0.0017,"nx":28,"ny":28,"refTime":"2024-07-02T03:00:00:Z","depth":0,"parameterNumber":2,"parameterNumberName":"U-component_of_WINDS"},"data":[0,0,0,0,0,0,0,0,0,0,0,0,0,0,0,0,0,0,0,0,0,0,0,0,0,0,0,0,0,0,0,0,0,0,0,0,0,0,0,0,0,0,0,0,0,0,0,0,0,0,0,0,0,0,0,0,0,0,-0.751,-0.7509,0,-0.7472,-0.7472,-0.7471,-0.7455,-0.7455,-0.7455,-0.7455,-0.742,-0.7419,-0.7418,0,0,0,0,0,0,0,0,0,0,0,0,0,-0.7572,-0.7571,-0.751,-0.7509,-0.7509,-0.7472,-0.7472,-0.7471,-0.7455,-0.7455,-0.7455,-0.7455,-0.742,-0.7419,-0.7418,0,0,0,0,0,0,0,0,0,0,0,0,0,-0.7541,-0.757,-0.751,-0.7496,-0.7495,-0.7472,-0.7472,-0.7471,-0.7455,-0.7455,-0.7455,-0.7455,-0.7421,-0.7419,-0.7418,-0.7408,0,0,-0.7413,-0.7413,0,0,0,0,0,0,0,0,-0.7542,-0.7538,-0.7499,-0.7497,-0.7495,-0.7468,-0.7481,-0.745,-0.7455,-0.747,-0.7455,-0.7455,-0.7436,-0.7434,-0.7426,-0.7406,-0.7405,-0.7413,-0.7412,-0.7412,-0.7411,0,0,0,0,0,0,0,-0.7544,-0.754,-0.7495,-0.7498,-0.7496,-0.7493,-0.7489,-0.7475,-0.7453,-0.7469,-0.7467,-0.7463,-0.7435,-0.7428,-0.7425,-0.7404,-0.7413,-0.7412,-0.7411,-0.7411,-0.7373,-0.7373,0,0,0,0,0,0,-0.7548,-0.7542,-0.7496,-0.7494,-0.7519,-0.7492,-0.7487,-0.7477,-0.7453,-0.745,-0.7463,-0.7462,-0.743,-0.7427,-0.7424,-0.741,-0.7412,-0.7411,-0.741,-0.7374,-0.7373,-0.7373,0,0,0,0,0,0,-0.755,-0.7544,-0.7498,-0.7517,-0.7511,-0.7491,-0.7479,-0.7476,-0.7468,-0.7449,-0.7445,-0.7459,-0.743,-0.7426,-0.7412,-0.7409,-0.741,-0.7409,-0.7374,-0.7374,-0.7373,-0.7383,0,0,0,0,0,0,-0.7552,-0.7545,-0.754,-0.7517,-0.751,-0.7485,-0.7479,-0.7475,-0.7465,-0.7464,-0.7444,-0.7441,-0.743,-0.7414,-0.741,-0.7407,-0.7407,-0.7374,-0.7374,-0.7373,-0.7383,-0.7383,-0.7383,0,0,0,0,0,-0.7554,-0.7545,-0.754,-0.7534,-0.7503,-0.7484,-0.7481,-0.7467,-0.7465,-0.7461,-0.7448,-0.7442,-0.741,-0.7413,-0.7408,-0.7405,-0.7374,-0.7374,-0.7373,-0.7383,-0.7383,-0.7383,0,0,0,0,0,0,-0.7569,-0.7542,-0.7536,-0.7519,-0.7504,-0.7482,-0.7475,-0.7468,-0.7454,-0.7454,-0.7438,-0.7434,-0.7421,-0.7411,-0.7415,-0.7394,-0.7391,-0.739,-0.74,-0.74,-0.7401,-0.7403,-0.7406,0,0,0,0,0,-0.7571,-0.7556,-0.7534,-0.7521,-0.7514,-0.7496,-0.7487,-0.7478,-0.7462,-0.7456,-0.7443,-0.7429,-0.7416,-0.7408,-0.7395,-0.7381,-0.7377,-0.7377,-0.7377,-0.7378,-0.7377,-0.7369,-0.7369,-0.7372,-0.7372,-0.7372,0,0,-0.7574,-0.7557,-0.7549,-0.7524,-0.7511,-0.7498,-0.7491,-0.7477,-0.7467,-0.7455,-0.7439,-0.7429,-0.7413,-0.7399,-0.7392,-0.7391,-0.7375,-0.7377,-0.7378,-0.7377,-0.7369,-0.7369,-0.7369,-0.7372,-0.7372,-0.7372,0,0,-0.7572,-0.7557,-0.7545,-0.7532,-0.7513,-0.7501,-0.7498,-0.7477,-0.7469,-0.7453,-0.7443,-0.7432,-0.741,-0.7399,-0.739,-0.7384,-0.7378,-0.738,-0.7382,-0.7375,-0.7375,-0.7374,-0.7372,-0.7372,-0.738,-0.738,-0.738,0,-0.7578,-0.7556,-0.7541,-0.7527,-0.7516,-0.7503,-0.7491,-0.748,-0.7458,-0.7452,-0.745,-0.7421,-0.741,-0.7393,-0.7391,-0.7385,-0.7382,-0.7383,-0.7376,-0.7375,-0.7375,-0.7373,-0.7372,-0.738,-0.738,-0.738,-0.738,0,-0.7565,-0.755,-0.7543,-0.752,-0.7509,-0.7497,-0.748,-0.7471,-0.7463,-0.7452,-0.7436,-0.7421,-0.7405,-0.74,-0.7393,-0.7383,-0.7382,-0.7379,-0.7376,-0.7375,-0.7373,-0.7372,-0.7381,-0.7381,-0.7381,-0.738,0,0,-0.7572,-0.754,-0.7538,-0.7527,-0.7504,-0.7493,-0.7481,-0.7463,-0.7456,-0.7441,-0.7431,-0.7412,-0.7408,-0.7398,-0.739,-0.7383,-0.738,-0.738,-0.738,-0.7381,-0.7368,-0.737,-0.737,-0.7375,-0.7375,-0.7375,-0.7369,0,-0.7567,-0.7542,-0.7527,-0.7509,-0.7495,-0.7482,-0.7472,-0.7457,-0.7446,-0.7434,-0.7423,-0.741,-0.7406,-0.74,-0.7393,-0.7381,-0.7377,-0.7382,-0.7366,-0.7366,-0.737,-0.7368,-0.7371,-0.7366,-0.7368,-0.7368,-0.7368,0,-0.7558,-0.7542,-0.7521,-0.75,-0.7494,-0.7484,-0.7467,-0.7455,-0.7439,-0.7432,-0.742,-0.7411,-0.7399,-0.7398,-0.738,-0.7384,-0.7377,-0.737,-0.737,-0.7368,-0.7367,-0.7366,-0.7365,-0.7364,-0.7366,-0.7366,-0.7367,0,-0.7565,-0.7538,-0.7522,-0.7514,-0.7488,-0.7482,-0.7471,-0.7455,-0.7445,-0.7431,-0.7425,-0.741,-0.7402,-0.7391,-0.7378,-0.7379,-0.7363,-0.736,-0.7357,-0.7357,-0.7354,-0.7354,-0.7351,-0.735,-0.735,-0.735,-0.735,0,-0.756,-0.7549,-0.7525,-0.7515,-0.7502,-0.7486,-0.7474,-0.7462,-0.7448,-0.7437,-0.7426,-0.7416,-0.74,-0.7388,-0.7379,-0.7366,-0.7363,-0.7357,-0.7354,-0.7358,-0.7358,-0.7353,-0.7353,-0.7349,-0.735,-0.735,-0.735,0,-0.7566,-0.7549,-0.7531,-0.7508,-0.7502,-0.7494,-0.7475,-0.7465,-0.7454,-0.744,-0.7436,-0.7419,-0.7404,-0.7391,-0.7372,-0.7366,-0.7353,-0.735,-0.7358,-0.7357,-0.7354,-0.7354,-0.7347,-0.7345,-0.7345,-0.7345,-0.7345,0,-0.7564,-0.7554,-0.753,-0.7521,-0.751,-0.7496,-0.7486,-0.747,-0.746,-0.7441,-0.7434,-0.7419,-0.7406,-0.7384,-0.737,-0.7356,-0.7353,-0.7351,-0.7351,-0.7354,-0.7353,-0.7353,-0.7352,-0.7351,-0.7352,-0.7352,-0.7352,0,-0.7563,-0.7555,-0.754,-0.7522,-0.7509,-0.7495,-0.748,-0.7474,-0.7456,-0.7446,-0.743,-0.742,-0.74,-0.7386,-0.737,-0.736,-0.7353,-0.7352,-0.735,-0.7353,-0.7358,-0.7355,-0.7359,-0.7352,-0.7352,-0.7352,-0.7352,-0.7352,-0.7564,-0.7555,-0.7536,-0.752,-0.7507,-0.7493,-0.7483,-0.747,-0.7456,-0.7438,-0.743,-0.7415,-0.7399,-0.7377,-0.7368,-0.7356,-0.7355,-0.7353,-0.7352,-0.7352,-0.7352,-0.736,-0.7354,-0.7354,-0.7354,-0.7354,-0.7354,0,-0.7562,-0.7549,-0.7534,-0.7513,-0.75,-0.7493,-0.7477,-0.7467,-0.7453,-0.7439,-0.7426,-0.7408,-0.7394,-0.7379,-0.7364,-0.7358,-0.7354,-0.7354,-0.7355,-0.7353,-0.7355,-0.7357,-0.7358,-0.7358,-0.7358,-0.7358,-0.7358,-0.7358,-0.7559,-0.7543,-0.7533,-0.7511,-0.7498,-0.7482,-0.7473,-0.7461,-0.7449,-0.7429,-0.7417,-0.7407,-0.7392,-0.7376,-0.7363,-0.7359,-0.7354,-0.7355,-0.7351,-0.7353,-0.7353,-0.7352,-0.7355,-0.7354,-0.7354,-0.735,-0.735,-0.735]},{"header":{"parameterUnit":"m.s-1","parameterCategory":1,"la1":30.2991,"la2":30.254,"lo1":-89.0895,"lo2":-89.0444,"dy":0.0017,"dx":0.0017,"nx":28,"ny":28,"refTime":"2024-07-02T03:00:00:Z","depth":0,"parameterNumber":3,"parameterNumberName":"V-component_of_WINDS"},"data":[0,0,0,0,0,0,0,0,0,0,0,0,0,0,0,0,0,0,0,0,0,0,0,0,0,0,0,0,0,0,0,0,0,0,0,0,0,0,0,0,0,0,0,0,0,0,0,0,0,0,0,0,0,0,0,0,0,0,4.3773,4.3773,0,4.3778,4.3778,4.3778,4.3707,4.3705,4.3703,4.3701,4.3704,4.3706,4.3708,0,0,0,0,0,0,0,0,0,0,0,0,0,4.3702,4.3704,4.3773,4.3773,4.3773,4.3778,4.3778,4.3778,4.3707,4.3705,4.3702,4.37,4.3703,4.3706,4.3708,0,0,0,0,0,0,0,0,0,0,0,0,0,4.3722,4.3704,4.3773,4.3739,4.3736,4.3778,4.3778,4.3778,4.3707,4.3705,4.3702,4.3699,4.3703,4.3705,4.3708,4.3783,0,0,4.3717,4.3718,0,0,0,0,0,0,0,0,4.3721,4.3725,4.3744,4.3741,4.3738,4.3739,4.3754,4.378,4.3708,4.3718,4.3701,4.3698,4.3718,4.3719,4.3726,4.3784,4.3784,4.3717,4.3719,4.372,4.3721,0,0,0,0,0,0,0,4.372,4.3724,4.3775,4.3744,4.374,4.3722,4.3722,4.3758,4.3734,4.3717,4.3712,4.3713,4.3716,4.3724,4.3726,4.3784,4.3717,4.372,4.3721,4.3722,4.3902,4.3905,0,0,0,0,0,0,4.3724,4.3724,4.3775,4.3775,4.3722,4.3726,4.3726,4.3741,4.3733,4.373,4.3716,4.371,4.372,4.3723,4.3726,4.3812,4.372,4.3723,4.3724,4.3899,4.3903,4.3906,0,0,0,0,0,0,4.3722,4.3729,4.3775,4.3748,4.3753,4.373,4.3748,4.3743,4.3751,4.3733,4.3728,4.3729,4.3718,4.3722,4.377,4.3811,4.3724,4.3727,4.3895,4.39,4.3904,4.3987,0,0,0,0,0,0,4.3721,4.3729,4.3757,4.3749,4.3754,4.3819,4.3751,4.3745,4.3756,4.3749,4.3743,4.374,4.3716,4.3766,4.3772,4.3814,4.3729,4.3891,4.3897,4.3903,4.398,4.3994,4.4005,0,0,0,0,0,4.3718,4.378,4.3759,4.3766,4.379,4.3822,4.3824,4.3796,4.376,4.3788,4.3776,4.374,4.3806,4.3771,4.3778,4.3821,4.3889,4.3896,4.3903,4.3975,4.3991,4.4005,0,0,0,0,0,0,4.3793,4.3779,4.3755,4.3817,4.3821,4.381,4.3844,4.3815,4.3829,4.3822,4.3786,4.3785,4.3839,4.3835,4.3796,4.3893,4.3841,4.385,4.3893,4.3909,4.3921,4.392,4.3731,0,0,0,0,0,4.3817,4.3845,4.383,4.3886,4.3889,4.3867,4.388,4.3858,4.3861,4.3862,4.3854,4.3858,4.3879,4.3894,4.3913,4.398,4.3977,4.4013,4.4025,4.4036,4.4043,4.4078,4.4093,4.3929,4.3929,4.3929,0,0,4.3867,4.3862,4.3881,4.3901,4.3902,4.3931,4.3869,4.3902,4.3923,4.3867,4.3911,4.3906,4.3907,4.3965,4.399,4.3963,4.4088,4.4045,4.4053,4.4055,4.4086,4.4102,4.4116,4.3934,4.3933,4.3932,0,0,4.3971,4.3971,4.4016,4.4019,4.4021,4.4006,4.4017,4.401,4.4004,4.4048,4.4007,4.4031,4.4069,4.4072,4.4078,4.4184,4.4151,4.4192,4.4256,4.429,4.4303,4.4314,4.4351,4.4365,4.4199,4.42,4.42,0,4.4031,4.4074,4.4044,4.408,4.4089,4.4041,4.4086,4.409,4.4098,4.4106,4.4076,4.4122,4.412,4.4178,4.4203,4.4211,4.4222,4.4191,4.4304,4.4315,4.4325,4.4359,4.4374,4.4204,4.4204,4.4203,4.4203,0,4.4148,4.4178,4.4214,4.4224,4.4238,4.4278,4.4254,4.4272,4.4249,4.4236,4.4282,4.4278,4.4295,4.4307,4.4285,4.4361,4.4344,4.431,4.4257,4.4346,4.4378,4.4391,4.4211,4.421,4.4208,4.4207,0,0,4.4298,4.4291,4.4305,4.4308,4.4308,4.433,4.4368,4.4385,4.4401,4.4408,4.4439,4.4473,4.4441,4.4448,4.4426,4.4456,4.4539,4.4418,4.4417,4.444,4.4622,4.4647,4.4663,4.4518,4.452,4.4522,4.4621,0,4.4399,4.4464,4.4438,4.4506,4.4532,4.4487,4.452,4.4523,4.4513,4.4534,4.4522,4.4546,4.4503,4.4507,4.4535,4.4523,4.4575,4.4516,4.4545,4.4546,4.4545,4.4679,4.4706,4.48,4.4634,4.4636,4.4637,0,4.4524,4.4537,4.4607,4.4602,4.4612,4.4642,4.4655,4.4676,4.4679,4.4669,4.4678,4.4649,4.4686,4.4634,4.4683,4.4644,4.4654,4.4651,4.4654,4.4654,4.4596,4.4683,4.4829,4.4843,4.4657,4.4655,4.4654,0,4.4626,4.4661,4.4707,4.4712,4.4706,4.4729,4.4727,4.4727,4.4739,4.475,4.4757,4.4773,4.4782,4.4795,4.4771,4.4735,4.4824,4.477,4.4816,4.4817,4.4835,4.4834,4.4984,4.4845,4.4844,4.4844,4.4844,0,4.474,4.4784,4.4753,4.4781,4.4829,4.4799,4.4848,4.4841,4.4841,4.4867,4.4829,4.4854,4.4822,4.4844,4.4826,4.4869,4.4873,4.4866,4.486,4.4869,4.487,4.4874,4.4867,4.4848,4.4847,4.4846,4.4846,0,4.4861,4.4842,4.4889,4.488,4.4879,4.4915,4.4907,4.4932,4.492,4.4953,4.4959,4.4939,4.4963,4.4941,4.4963,4.4951,4.5009,4.4994,4.5008,4.5004,4.5051,4.5046,4.5208,4.5227,4.5076,4.5078,4.5079,0,4.4934,4.4967,4.4962,4.4977,4.4978,4.5003,4.5015,4.4987,4.5,4.5006,4.503,4.5051,4.5066,4.5106,4.5093,4.511,4.5095,4.5151,4.5097,4.5105,4.5095,4.5093,4.5095,4.5161,4.5163,4.5164,4.5166,0,4.5066,4.5055,4.5074,4.509,4.5105,4.5116,4.5124,4.5138,4.5109,4.5127,4.5151,4.5162,4.5186,4.5206,4.5219,4.5217,4.5187,4.5183,4.5194,4.5202,4.5208,4.5205,4.5036,4.5179,4.5177,4.5177,4.5176,4.5175,4.5165,4.5192,4.5193,4.5215,4.5218,4.5226,4.525,4.524,4.526,4.5276,4.5259,4.5288,4.5289,4.5303,4.5305,4.5327,4.5304,4.5321,4.5324,4.5329,4.5335,4.5206,4.533,4.5329,4.5329,4.5329,4.5328,0,4.5294,4.5292,4.5313,4.5325,4.5343,4.5313,4.532,4.5337,4.5363,4.5367,4.5382,4.541,4.543,4.5419,4.5436,4.5456,4.5442,4.5461,4.5459,4.5459,4.5356,4.5344,4.5472,4.5472,4.5472,4.5472,4.5472,4.5472,4.5363,4.5407,4.5396,4.5441,4.5439,4.5467,4.5474,4.5481,4.5484,4.5516,4.5533,4.5526,4.5524,4.554,4.5557,4.5553,4.5561,4.5585,4.5576,4.548,4.5466,4.5452,4.5441,4.5587,4.5587,4.5677,4.5678,4.5679]}]]